Zurück zum Katalog

STARLINK-36572

AktivKommunikationSSO
NORAD 67536·PAYLOAD·🇺🇸 United States

Gestartet Jan 22, 2026 von Vandenberg Space Force Base

Loading…

Nächste Überflüge (nächste 24 Stunden)

TLE

AktuellSource: CelesTrak SupGP

Epoche: Sep 14, 2026, 21:16 UTC

1 67536C 26014E   26257.88659722 -.00025197  00000+0 -78257-3 0  2573
2 67536  97.2845 143.2966 0001936  95.6919 341.9818 15.33434813    13

Verfolge STARLINK-36572 in Echtzeit mit AllMySat

Download on the App Store